{"data":{"norad_id":61626,"intl_designator":"2024-191F","name":"STARLINK-32333","alt_names":[],"object_type":"PAYLOAD","status":"ACTIVE","operator":null,"country":"US","launch_date":"2024-10-23","launch_site_code":"AFETR","launch_vehicle":null,"mission":null,"orbit_class":"UNKNOWN","rcs_meters":null,"size_class":null,"mass_kg":null,"dimensions":null,"purposes":["comms"],"wikipedia_slug":null,"has_3d_model":false,"image_url":null,"decayed_at":null,"tle_current":{"epoch":"2026-05-25T04:31:02.273664Z","epoch_age_seconds":62315,"freshness":"FRESH","line1":"1 61626U 24191F   26145.18822076 -.00000038  00000+0  81210-5 0  9998","line2":"2 61626  43.0001  86.1365 0000755 253.8786 106.1983 15.27578245 89197","mean_motion":15.27578245,"eccentricity":7.55e-5,"inclination_deg":43.0001,"raan_deg":86.1365,"arg_perigee_deg":253.8786,"mean_anomaly_deg":106.1983,"bstar":8.121e-6,"rev_number":8919,"period_min":94.266857014581,"perigee_km":482.53633119903,"apogee_km":483.57237109305,"semimajor_km":6861.191351146,"source":"CELESTRAK","updated_at":"2026-05-25T13:38:19.407346Z"}}}